SCP
0 0 0 0 0 0 0 0 0 0 0 0 0 0 0 -0 0 0 0 0 1 1 1 1 1 1 1 1 0 1 1 1
0 0 0 0 0 0 0 0 0 0 0 0 0 -0 -0 0 0 0 0 0 0 0 1 1 1 1 1 1 1 1 1 1
0 0 0 0 0 0 0 0 0 0 -0 0 0 0 -0 -0 -0 0 0 0 0 1 1 2 1 1 1 1 1 1 3 0
0 0 0 0 0 0 0 0 0 0 0 0 0 0 0 -0 -0 0 0 0 0 1 1 2 2 1 1 1 1 0 1 -0
0 0 0 0 0 0 0 0 0 -0 0 0 0 0 0 -0 0 0 0 0 1 1 1 1 2 2 1 1 0 0 0 0
0 0 0 0 0 0 0 0 0 -0 0 0 0 0 0 0 0 0 0 0 1 1 2 2 2 1 1 0 0 0 -0 0
0 0 0 0 0 0 0 -0 0 0 0 0 0 0 0 0 0 0 0 1 1 1 1 2 2 1 1 0 0 0 0 0
0 0 0 0 0 0 0 0 0 0 0 0 0 0 0 0 0 0 0 1 1 1 1 1 1 1 1 0 0 0 0 -0
0 0 0 0 0 0 0 0 0 0 0 0 0 0 0 0 0 0 0 1 1 1 2 1 0 0 0 0 0 0 0 0
0 0 0 0 1 0 0 0 0 0 1 0 0 0 1 1 1 1 1 1 1 1 1 0 0 0 0 0 0 0 0 0
0 0 0 0 1 1 0 0 1 0 1 0 0 0 1 1 1 1 1 0 0 0 0 0 0 0 0 0 -0 0 0 0
0 0 0 1 1 1 1 1 1 1 0 0 0 -0 1 0 0 0 0 0 0 0 0 0 0 0 0 0 0 0 0 0
0 0 0 1 1 0 0 0 1 1 0 0 0 1 1 0 0 0 0 0 0 0 1 0 0 0 0 0 0 1 1 0
0 0 0 1 0 1 1 1 1 1 1 1 1 1 1 0 0 0 1 0 0 0 0 0 0 0 0 0 0 0 0 0
0 0 1 1 2 2 2 2 2 1 1 0 0 1 1 1 1 1 1 1 0 0 0 0 0 1 0 0 0 0 0 0
1 2 1 2 2 2 3 4 2 1 1 0 0 1 1 1 1 1 1 1 1 1 0 0 0 0 0 0 0 0 0 0
1 1 1 1 2 2 4 3 2 1 0 0 1 1 1 1 1 1 1 0 0 0 0 0 0 0 0 0 0 0 0 0
1 1 2 2 2 3 2 2 1 1 1 1 1 1 1 1 0 0 0 0 0 0 0 0 0 0 0 0 0 0 0 0
1 1 1 1 1 2 2 1 2 2 2 1 1 1 1 1 1 0 0 0 0 0 0 0 0 0 0 0 0 0 0 0
Wind_Speed_500mb
9 9 18 19 21 10 8 3 16 10 9 10 3 6 8 15 23 20 16 17 22 27 27 26 24 24 21 20 25 29 28 27
18 14 6 13 17 14 15 11 17 11 8 5 10 12 14 16 22 17 14 15 22 25 27 27 23 22 19 17 23 27 24 25
14 24 27 13 18 17 10 8 8 10 13 12 2 8 16 16 16 15 12 13 20 25 28 24 24 21 20 19 20 22 29 27
30 14 6 12 25 29 19 19 16 14 5 9 5 13 13 16 16 11 11 16 23 27 31 28 26 23 23 11 9 15 30 27
24 15 11 18 22 22 18 9 13 19 8 11 12 10 10 16 13 9 8 14 20 25 31 31 28 25 21 15 8 3 24 35
19 27 22 20 22 26 32 18 19 23 6 18 9 7 18 16 14 9 7 12 16 22 30 30 27 25 23 21 21 30 34 36
32 11 12 21 21 28 29 23 17 19 20 17 9 7 17 18 13 10 6 8 15 21 31 33 28 26 23 25 28 31 25 24
35 29 28 20 17 18 18 12 7 6 12 11 10 17 22 20 15 10 7 6 11 21 30 34 30 29 26 29 36 30 28 26
30 22 28 31 29 27 22 19 17 16 12 11 11 15 20 18 13 8 5 5 9 18 26 30 29 30 31 30 36 27 25 27
18 16 29 9 2 23 24 19 12 13 10 7 15 17 13 10 11 8 3 3 9 12 24 26 28 28 27 28 36 33 25 25
13 25 8 15 13 14 23 17 6 7 15 18 21 27 17 9 3 1 2 6 16 19 19 26 27 29 25 28 32 35 28 27
15 23 23 19 14 9 8 16 10 12 20 29 31 18 11 11 5 2 3 5 11 16 20 25 28 29 25 25 27 29 31 31
17 13 15 10 4 6 20 10 9 10 20 30 20 12 26 13 7 6 3 8 11 22 26 25 31 33 29 27 25 31 39 39
2 8 12 13 7 8 10 7 10 8 14 17 22 21 18 15 11 10 7 7 12 18 27 28 30 33 34 34 41 35 33 40
11 10 9 10 9 7 6 4 8 8 14 18 21 19 14 11 8 7 6 11 9 10 14 20 25 31 35 37 35 32 28 28
5 10 6 7 6 10 6 5 3 14 12 13 13 12 10 6 4 5 5 9 9 9 3 7 9 15 19 26 32 31 30 31
3 7 3 5 7 7 11 6 10 11 12 8 9 9 8 7 7 6 6 7 6 4 2 3 5 7 12 16 20 23 26 28
8 10 8 6 5 8 7 11 14 18 18 13 10 9 8 5 5 5 4 4 7 7 6 2 5 10 13 14 17 18 18 17
7 8 3 5 6 7 9 10 13 16 13 10 8 7 6 5 4 2 1 2 3 4 5 4 1 7 12 14 19 20 19 19
Wind_Direction_500mb
203 194 224 174 221 314 273 196 271 198 193 227 163 169 107 79 98 108 139 149 158 167 168 167 163 167 171 181 189 184 189 192
155 171 131 266 177 195 219 250 257 155 252 256 193 165 114 95 103 114 122 143 159 165 164 154 158 161 157 172 184 190 194 203
182 207 201 181 205 240 305 315 299 231 202 111 325 77 111 106 105 108 128 161 169 167 167 160 160 157 153 168 179 204 216 202
212 111 340 297 248 218 232 189 238 303 324 105 89 115 113 111 108 101 135 161 176 177 174 167 165 157 169 178 207 222 190 170
227 205 197 234 210 240 241 271 197 243 182 117 113 129 128 127 124 125 132 163 169 179 177 175 169 157 161 154 158 176 181 156
245 222 202 198 209 211 214 206 188 224 127 166 105 161 144 137 132 150 155 166 178 180 180 178 176 159 157 154 156 137 161 153
244 264 241 232 202 194 219 235 228 222 201 78 69 67 135 153 152 176 172 170 190 186 180 179 178 165 162 156 158 167 166 169
231 228 243 238 211 196 217 218 254 218 139 64 93 120 134 147 161 168 168 141 177 187 183 181 180 170 168 161 162 159 172 183
220 204 225 232 227 209 206 197 221 217 80 122 126 135 139 141 137 132 127 164 178 190 183 183 184 176 174 182 176 166 174 187
224 183 219 190 221 226 221 213 171 107 56 53 136 128 127 123 133 119 101 130 157 190 186 188 183 182 179 180 189 186 188 195
203 211 135 152 158 177 196 170 174 153 89 135 142 134 122 123 110 170 307 232 195 191 175 184 182 190 194 183 187 193 203 196
199 220 214 97 131 161 193 157 47 97 154 170 183 219 126 163 160 132 220 217 200 172 176 180 184 195 203 186 187 199 213 209
190 216 96 73 102 190 206 87 68 135 163 179 201 21 134 150 138 71 83 171 167 168 160 177 188 196 204 208 205 209 216 210
253 228 144 16 199 263 37 76 53 115 156 161 149 139 143 159 159 148 108 149 169 167 175 186 198 206 212 212 225 237 241 222
348 51 44 12 22 25 2 7 56 110 136 153 165 170 176 177 168 141 138 121 122 142 173 199 210 214 226 227 231 238 231 214
240 82 48 27 27 27 40 23 47 126 162 178 197 202 197 183 150 134 107 93 99 98 132 187 211 215 222 226 231 227 225 221
213 131 235 167 60 36 57 81 103 113 133 169 179 192 173 154 155 130 100 73 60 76 104 256 218 218 215 212 216 222 229 234
13 19 296 81 75 77 117 101 89 95 102 108 110 127 133 130 118 104 86 78 77 65 61 359 271 249 242 223 217 223 230 233
51 39 67 127 115 99 105 115 109 105 102 114 125 133 136 147 132 156 160 178 121 91 82 60 261 252 260 251 226 222 216 228
Wind_Speed_850mb
9 9 18 19 21 10 8 3 16 10 9 10 3 6 8 15 23 20 16 17 22 27 27 26 24 24 21 20 25 29 28 27
18 14 6 13 17 14 15 11 17 11 8 5 10 12 14 16 22 17 14 15 22 25 27 27 23 22 19 17 23 27 24 25
14 24 27 13 18 17 10 8 8 10 13 12 2 8 16 16 16 15 12 13 20 25 28 24 24 21 20 19 20 22 29 27
30 14 6 12 25 29 19 19 16 14 5 9 5 13 13 16 16 11 11 16 23 27 31 28 26 23 23 11 9 15 30 27
24 15 11 18 22 22 18 9 13 19 8 11 12 10 10 16 13 9 8 14 20 25 31 31 28 25 21 15 8 3 24 35
19 27 22 20 22 26 32 18 19 23 6 18 9 7 18 16 14 9 7 12 16 22 30 30 27 25 23 21 21 30 34 36
32 11 12 21 21 28 29 23 17 19 20 17 9 7 17 18 13 10 6 8 15 21 31 33 28 26 23 25 28 31 25 24
35 29 28 20 17 18 18 12 7 6 12 11 10 17 22 20 15 10 7 6 11 21 30 34 30 29 26 29 36 30 28 26
30 22 28 31 29 27 22 19 17 16 12 11 11 15 20 18 13 8 5 5 9 18 26 30 29 30 31 30 36 27 25 27
18 16 29 9 2 23 24 19 12 13 10 7 15 17 13 10 11 8 3 3 9 12 24 26 28 28 27 28 36 33 25 25
13 25 8 15 13 14 23 17 6 7 15 18 21 27 17 9 3 1 2 6 16 19 19 26 27 29 25 28 32 35 28 27
15 23 23 19 14 9 8 16 10 12 20 29 31 18 11 11 5 2 3 5 11 16 20 25 28 29 25 25 27 29 31 31
17 13 15 10 4 6 20 10 9 10 20 30 20 12 26 13 7 6 3 8 11 22 26 25 31 33 29 27 25 31 39 39
2 8 12 13 7 8 10 7 10 8 14 17 22 21 18 15 11 10 7 7 12 18 27 28 30 33 34 34 41 35 33 40
11 10 9 10 9 7 6 4 8 8 14 18 21 19 14 11 8 7 6 11 9 10 14 20 25 31 35 37 35 32 28 28
5 10 6 7 6 10 6 5 3 14 12 13 13 12 10 6 4 5 5 9 9 9 3 7 9 15 19 26 32 31 30 31
3 7 3 5 7 7 11 6 10 11 12 8 9 9 8 7 7 6 6 7 6 4 2 3 5 7 12 16 20 23 26 28
8 10 8 6 5 8 7 11 14 18 18 13 10 9 8 5 5 5 4 4 7 7 6 2 5 10 13 14 17 18 18 17
7 8 3 5 6 7 9 10 13 16 13 10 8 7 6 5 4 2 1 2 3 4 5 4 1 7 12 14 19 20 19 19
Wind_Direction_850mb
203 194 224 174 221 314 273 196 271 198 193 227 163 169 107 79 98 108 139 149 158 167 168 167 163 167 171 181 189 184 189 192
155 171 131 266 177 195 219 250 257 155 252 256 193 165 114 95 103 114 122 143 159 165 164 154 158 161 157 172 184 190 194 203
182 207 201 181 205 240 305 315 299 231 202 111 325 77 111 106 105 108 128 161 169 167 167 160 160 157 153 168 179 204 216 202
212 111 340 297 248 218 232 189 238 303 324 105 89 115 113 111 108 101 135 161 176 177 174 167 165 157 169 178 207 222 190 170
227 205 197 234 210 240 241 271 197 243 182 117 113 129 128 127 124 125 132 163 169 179 177 175 169 157 161 154 158 176 181 156
245 222 202 198 209 211 214 206 188 224 127 166 105 161 144 137 132 150 155 166 178 180 180 178 176 159 157 154 156 137 161 153
244 264 241 232 202 194 219 235 228 222 201 78 69 67 135 153 152 176 172 170 190 186 180 179 178 165 162 156 158 167 166 169
231 228 243 238 211 196 217 218 254 218 139 64 93 120 134 147 161 168 168 141 177 187 183 181 180 170 168 161 162 159 172 183
220 204 225 232 227 209 206 197 221 217 80 122 126 135 139 141 137 132 127 164 178 190 183 183 184 176 174 182 176 166 174 187
224 183 219 190 221 226 221 213 171 107 56 53 136 128 127 123 133 119 101 130 157 190 186 188 183 182 179 180 189 186 188 195
203 211 135 152 158 177 196 170 174 153 89 135 142 134 122 123 110 170 307 232 195 191 175 184 182 190 194 183 187 193 203 196
199 220 214 97 131 161 193 157 47 97 154 170 183 219 126 163 160 132 220 217 200 172 176 180 184 195 203 186 187 199 213 209
190 216 96 73 102 190 206 87 68 135 163 179 201 21 134 150 138 71 83 171 167 168 160 177 188 196 204 208 205 209 216 210
253 228 144 16 199 263 37 76 53 115 156 161 149 139 143 159 159 148 108 149 169 167 175 186 198 206 212 212 225 237 241 222
348 51 44 12 22 25 2 7 56 110 136 153 165 170 176 177 168 141 138 121 122 142 173 199 210 214 226 227 231 238 231 214
240 82 48 27 27 27 40 23 47 126 162 178 197 202 197 183 150 134 107 93 99 98 132 187 211 215 222 226 231 227 225 221
213 131 235 167 60 36 57 81 103 113 133 169 179 192 173 154 155 130 100 73 60 76 104 256 218 218 215 212 216 222 229 234
13 19 296 81 75 77 117 101 89 95 102 108 110 127 133 130 118 104 86 78 77 65 61 359 271 249 242 223 217 223 230 233
51 39 67 127 115 99 105 115 109 105 102 114 125 133 136 147 132 156 160 178 121 91 82 60 261 252 260 251 226 222 216 228